VLG525C LEBL-LEBB

Flight info

Callsign VLG525C
Flight time 0h 56m
Altitude 27000
Route GRAUS M601 POSSY/N0413F290 M601 CEGAM
Aircraft A320/M-SDE3FGHIRWY/LB1

Departure

Time 2026-05-05 08:55
Airport Josep Tarradellas Barcelona-El Prat Airport (LEBL)

Arrival

Time 2026-05-05 09:51
Airport Bilbao Airport (LEBB)
Time Latitude Longitude Altitude Speed Heading
2026-05-05 07:59 41.29173 2.08013 21 ft 0 kts 155°
2026-05-05 08:39 41.29177 2.08011 20 ft 3 kts 155°
2026-05-05 08:39 41.29201 2.07997 19 ft 4 kts 155°
2026-05-05 08:39 41.29224 2.07979 21 ft 4 kts 137°
2026-05-05 08:39 41.29238 2.07953 19 ft 4 kts 92°
2026-05-05 08:40 41.29237 2.07938 22 ft 0 kts 65°
2026-05-05 08:46 41.29247 2.07966 19 ft 6 kts 65°
2026-05-05 08:46 41.29270 2.08033 20 ft 9 kts 65°
2026-05-05 08:47 41.29301 2.08124 19 ft 12 kts 65°
2026-05-05 08:47 41.29341 2.08241 21 ft 15 kts 65°
2026-05-05 08:47 41.29371 2.08332 20 ft 10 kts 79°
2026-05-05 08:47 41.29325 2.08406 20 ft 12 kts 155°
2026-05-05 08:48 41.29243 2.08449 21 ft 14 kts 157°
2026-05-05 08:48 41.29144 2.08510 20 ft 18 kts 154°
2026-05-05 08:48 41.29017 2.08590 18 ft 21 kts 155°
2026-05-05 08:48 41.28894 2.08672 16 ft 18 kts 155°
2026-05-05 08:49 41.28873 2.08771 17 ft 13 kts 68°
2026-05-05 08:49 41.28921 2.08895 19 ft 17 kts 62°
2026-05-05 08:49 41.28973 2.09050 17 ft 20 kts 69°
2026-05-05 08:49 41.29032 2.09231 17 ft 23 kts 64°
2026-05-05 08:50 41.29105 2.09433 17 ft 25 kts 65°
2026-05-05 08:50 41.29182 2.09660 18 ft 28 kts 65°
2026-05-05 08:50 41.29263 2.09893 17 ft 17 kts 65°
2026-05-05 08:50 41.29286 2.09966 17 ft 9 kts 79°
2026-05-05 08:51 41.29263 2.10058 15 ft 7 kts 112°
2026-05-05 08:51 41.29262 2.10061 15 ft 0 kts 112°
2026-05-05 08:51 41.29262 2.10062 15 ft 1 kts 112°
2026-05-05 08:51 41.29253 2.10091 15 ft 5 kts 112°
2026-05-05 08:52 41.29237 2.10147 15 ft 7 kts 108°
2026-05-05 08:52 41.29244 2.10224 15 ft 10 kts 66°
2026-05-05 08:52 41.29218 2.10291 15 ft 10 kts 190°
2026-05-05 08:52 41.29193 2.10248 16 ft 0 kts 245°
2026-05-05 08:54 41.29193 2.10247 16 ft 1 kts 245°
2026-05-05 08:54 41.29164 2.10165 17 ft 34 kts 245°
2026-05-05 08:54 41.28958 2.09554 19 ft 107 kts 245°
2026-05-05 08:54 41.28570 2.08419 29 ft 159 kts 247°
2026-05-05 08:55 41.28087 2.07039 612 ft 165 kts 242°
2026-05-05 08:55 41.27190 2.06089 1290 ft 172 kts 204°
2026-05-05 08:55 41.26025 2.05652 1874 ft 181 kts 194°
2026-05-05 08:55 41.24766 2.05312 2496 ft 187 kts 193°
2026-05-05 08:56 41.23475 2.04981 3207 ft 187 kts 193°
2026-05-05 08:56 41.22214 2.04677 3972 ft 186 kts 192°
2026-05-05 08:56 41.20866 2.04352 4364 ft 209 kts 192°
2026-05-05 08:56 41.19409 2.03885 5045 ft 219 kts 205°
2026-05-05 08:57 41.18158 2.02723 5874 ft 226 kts 228°
2026-05-05 08:57 41.17170 2.01068 6741 ft 234 kts 230°
2026-05-05 08:57 41.15850 1.99657 7245 ft 256 kts 207°
2026-05-05 08:57 41.14183 1.98716 8072 ft 264 kts 202°
2026-05-05 08:58 41.12475 1.97848 9074 ft 267 kts 202°
2026-05-05 08:58 41.10722 1.96984 10041 ft 270 kts 202°
2026-05-05 08:58 41.08891 1.96101 10498 ft 293 kts 202°
2026-05-05 08:58 41.06915 1.95147 11021 ft 308 kts 202°
2026-05-05 08:59 41.04879 1.94166 11857 ft 313 kts 202°
2026-05-05 08:59 41.02847 1.93100 12745 ft 316 kts 209°
2026-05-05 08:59 41.01096 1.91345 13619 ft 318 kts 229°
2026-05-05 08:59 40.99950 1.88832 14448 ft 323 kts 249°
2026-05-05 09:00 40.99600 1.85895 15286 ft 330 kts 269°
2026-05-05 09:00 41.00137 1.82924 16136 ft 341 kts 290°
2026-05-05 09:00 41.01580 1.80363 16959 ft 358 kts 313°
2026-05-05 09:00 41.03763 1.78713 17738 ft 375 kts 333°
2026-05-05 09:01 41.06252 1.77510 18494 ft 379 kts 334°
2026-05-05 09:01 41.08760 1.76343 19183 ft 383 kts 333°
2026-05-05 09:01 41.11298 1.75174 19904 ft 387 kts 333°
2026-05-05 09:01 41.13819 1.74009 20643 ft 391 kts 332°
2026-05-05 09:02 41.16434 1.72786 21350 ft 395 kts 332°
2026-05-05 09:02 41.18991 1.71558 21985 ft 396 kts 329°
2026-05-05 09:02 41.21354 1.69818 22623 ft 384 kts 313°
2026-05-05 09:02 41.23379 1.67528 23324 ft 382 kts 309°
2026-05-05 09:03 41.25394 1.65186 23980 ft 386 kts 309°
2026-05-05 09:03 41.27421 1.62818 24619 ft 388 kts 309°
2026-05-05 09:03 41.29450 1.60438 25248 ft 391 kts 309°
2026-05-05 09:03 41.31498 1.58028 25869 ft 394 kts 309°
2026-05-05 09:04 41.33560 1.55600 26492 ft 396 kts 309°
2026-05-05 09:04 41.35640 1.53157 26863 ft 399 kts 309°
2026-05-05 09:04 41.37719 1.50754 26964 ft 390 kts 309°
2026-05-05 09:04 41.39755 1.48444 26965 ft 380 kts 309°
2026-05-05 09:05 41.41758 1.46169 26964 ft 376 kts 309°
2026-05-05 09:05 41.43712 1.43932 26964 ft 375 kts 308°
2026-05-05 09:05 41.45678 1.41661 26964 ft 375 kts 308°
2026-05-05 09:05 41.47634 1.39363 26964 ft 371 kts 305°
2026-05-05 09:06 41.49272 1.36804 26967 ft 358 kts 294°
2026-05-05 09:06 41.50455 1.33910 26968 ft 356 kts 283°
2026-05-05 09:06 41.51185 1.30760 27017 ft 358 kts 275°
2026-05-05 09:06 41.51540 1.27437 27148 ft 367 kts 268°
2026-05-05 09:07 41.51737 1.23972 27283 ft 381 kts 269°
2026-05-05 09:07 41.51963 1.20402 27508 ft 391 kts 269°
2026-05-05 09:07 41.52205 1.16766 28022 ft 393 kts 269°
2026-05-05 09:07 41.52444 1.13129 28748 ft 391 kts 269°
2026-05-05 09:08 41.52679 1.09529 29553 ft 387 kts 269°
2026-05-05 09:08 41.52904 1.05977 30276 ft 383 kts 269°
2026-05-05 09:08 41.53121 1.02433 30868 ft 382 kts 269°
2026-05-05 09:08 41.53331 0.98899 31398 ft 381 kts 269°
2026-05-05 09:09 41.53537 0.95378 31929 ft 381 kts 268°
2026-05-05 09:09 41.53743 0.91840 32458 ft 381 kts 268°
2026-05-05 09:09 41.53946 0.88319 32979 ft 381 kts 268°
2026-05-05 09:09 41.54148 0.84780 33510 ft 382 kts 268°
2026-05-05 09:10 41.54351 0.81245 34045 ft 381 kts 269°
2026-05-05 09:10 41.54555 0.77720 34484 ft 382 kts 269°
2026-05-05 09:10 41.54759 0.74177 34941 ft 383 kts 269°
2026-05-05 09:10 41.55169 0.70652 35345 ft 391 kts 279°
2026-05-05 09:11 41.56218 0.67240 35756 ft 405 kts 292°
2026-05-05 09:11 41.57902 0.64216 36124 ft 420 kts 307°
2026-05-05 09:11 41.60219 0.61742 36499 ft 438 kts 322°
2026-05-05 09:11 41.62980 0.59899 36882 ft 445 kts 327°
2026-05-05 09:12 41.65787 0.58131 37274 ft 445 kts 327°
2026-05-05 09:12 41.68582 0.56370 37683 ft 445 kts 327°
2026-05-05 09:12 41.71393 0.54592 37948 ft 446 kts 327°
2026-05-05 09:13 41.76999 0.51030 37972 ft 446 kts 327°
2026-05-05 09:13 41.82615 0.47442 37977 ft 449 kts 327°
2026-05-05 09:14 41.88251 0.43829 37972 ft 449 kts 327°
2026-05-05 09:14 41.93843 0.40124 37974 ft 444 kts 321°
2026-05-05 09:15 41.98413 0.34872 37994 ft 426 kts 302°
2026-05-05 09:15 42.01456 0.28197 37993 ft 416 kts 291°
2026-05-05 09:16 42.04057 0.21254 37979 ft 420 kts 291°
2026-05-05 09:16 42.06729 0.14083 37977 ft 438 kts 291°
2026-05-05 09:17 42.09499 0.06658 37976 ft 455 kts 291°
2026-05-05 09:17 42.10943 0.02792 38214 ft 454 kts 291°
2026-05-05 09:17 42.12347 -0.00955 38422 ft 444 kts 291°
2026-05-05 09:18 42.15108 -0.08308 38432 ft 448 kts 291°
2026-05-05 09:18 42.17871 -0.15799 38449 ft 442 kts 291°
2026-05-05 09:19 42.20540 -0.23079 38297 ft 424 kts 291°
2026-05-05 09:19 42.21841 -0.26616 37978 ft 419 kts 291°
2026-05-05 09:19 42.23129 -0.30120 37975 ft 413 kts 291°
2026-05-05 09:20 42.25695 -0.37120 37973 ft 418 kts 291°
2026-05-05 09:20 42.28279 -0.44183 37976 ft 419 kts 291°
2026-05-05 09:21 42.30860 -0.51240 37980 ft 419 kts 291°
2026-05-05 09:21 42.33424 -0.58254 37981 ft 419 kts 291°
2026-05-05 09:22 42.35993 -0.65319 37983 ft 419 kts 291°
2026-05-05 09:22 42.38558 -0.72397 37986 ft 419 kts 291°
2026-05-05 09:23 42.41124 -0.79485 38023 ft 420 kts 291°
2026-05-05 09:23 42.43692 -0.86596 38007 ft 421 kts 291°
2026-05-05 09:24 42.46255 -0.93723 37911 ft 422 kts 291°
2026-05-05 09:24 42.47538 -0.97303 37640 ft 421 kts 291°
2026-05-05 09:24 42.48813 -1.00863 37372 ft 421 kts 291°
2026-05-05 09:24 42.50091 -1.04433 37115 ft 420 kts 291°
2026-05-05 09:25 42.51369 -1.08000 36860 ft 420 kts 291°
2026-05-05 09:25 42.52641 -1.11549 36606 ft 419 kts 291°
2026-05-05 09:25 42.53915 -1.15110 36374 ft 419 kts 291°
2026-05-05 09:25 42.55186 -1.18669 35738 ft 422 kts 291°
2026-05-05 09:26 42.56465 -1.22265 35196 ft 421 kts 290°
2026-05-05 09:26 42.57730 -1.25823 34727 ft 418 kts 290°
2026-05-05 09:26 42.58977 -1.29335 34233 ft 416 kts 290°
2026-05-05 09:26 42.60226 -1.32858 33692 ft 414 kts 290°
2026-05-05 09:27 42.61471 -1.36371 33192 ft 411 kts 290°
2026-05-05 09:27 42.62700 -1.39844 32692 ft 407 kts 290°
2026-05-05 09:27 42.63923 -1.43302 32196 ft 404 kts 290°
2026-05-05 09:27 42.65134 -1.46734 31693 ft 400 kts 290°
2026-05-05 09:28 42.66334 -1.50134 31226 ft 396 kts 290°
2026-05-05 09:28 42.67518 -1.53486 30753 ft 393 kts 290°
2026-05-05 09:28 42.68695 -1.56817 30268 ft 391 kts 290°
2026-05-05 09:28 42.69866 -1.60143 29745 ft 388 kts 290°
2026-05-05 09:29 42.71020 -1.63435 29291 ft 382 kts 290°
2026-05-05 09:29 42.72150 -1.66675 28850 ft 377 kts 290°
2026-05-05 09:29 42.73282 -1.69878 28415 ft 374 kts 293°
2026-05-05 09:29 42.74642 -1.72899 28002 ft 373 kts 297°
2026-05-05 09:30 42.76037 -1.75849 27580 ft 370 kts 297°
2026-05-05 09:30 42.77424 -1.78781 27177 ft 366 kts 298°
2026-05-05 09:30 42.78796 -1.81683 26770 ft 363 kts 298°
2026-05-05 09:30 42.80151 -1.84559 26373 ft 360 kts 298°
2026-05-05 09:31 42.81496 -1.87429 25954 ft 358 kts 298°
2026-05-05 09:31 42.82830 -1.90280 25580 ft 355 kts 298°
2026-05-05 09:31 42.84147 -1.93101 25173 ft 353 kts 298°
2026-05-05 09:31 42.85464 -1.95920 24766 ft 351 kts 298°
2026-05-05 09:32 42.86771 -1.98711 24340 ft 349 kts 298°
2026-05-05 09:32 42.87635 -2.00555 24060 ft 348 kts 298°
2026-05-05 09:32 42.88939 -2.03340 23632 ft 347 kts 298°
2026-05-05 09:32 42.90654 -2.07018 22998 ft 344 kts 298°
2026-05-05 09:33 42.91927 -2.09759 22552 ft 342 kts 298°
2026-05-05 09:33 42.93205 -2.12510 22012 ft 342 kts 298°
2026-05-05 09:33 42.94065 -2.14360 21730 ft 340 kts 299°
2026-05-05 09:33 42.95323 -2.17065 21304 ft 336 kts 299°
2026-05-05 09:34 42.96569 -2.19741 20899 ft 332 kts 299°
2026-05-05 09:34 42.97803 -2.22396 20476 ft 329 kts 299°
2026-05-05 09:34 42.99023 -2.25023 20053 ft 328 kts 299°
2026-05-05 09:34 43.00235 -2.27613 19650 ft 326 kts 300°
2026-05-05 09:35 43.01462 -2.30226 19228 ft 326 kts 300°
2026-05-05 09:35 43.03914 -2.35435 18372 ft 326 kts 301°
2026-05-05 09:35 43.05141 -2.38044 17908 ft 325 kts 301°
2026-05-05 09:36 43.06358 -2.40636 17482 ft 323 kts 300°
2026-05-05 09:36 43.07569 -2.43225 17056 ft 322 kts 300°
2026-05-05 09:36 43.08766 -2.45794 16632 ft 320 kts 300°
2026-05-05 09:36 43.09963 -2.48362 16219 ft 319 kts 300°
2026-05-05 09:37 43.11152 -2.50915 15801 ft 318 kts 300°
2026-05-05 09:37 43.12337 -2.53456 15389 ft 317 kts 300°
2026-05-05 09:37 43.13521 -2.55996 14984 ft 315 kts 301°
2026-05-05 09:37 43.14696 -2.58520 14570 ft 315 kts 301°
2026-05-05 09:38 43.15876 -2.61052 14147 ft 314 kts 300°
2026-05-05 09:38 43.17048 -2.63575 13736 ft 313 kts 300°
2026-05-05 09:38 43.18196 -2.66050 13309 ft 311 kts 300°
2026-05-05 09:38 43.19355 -2.68552 12905 ft 309 kts 301°
2026-05-05 09:39 43.20502 -2.71026 12504 ft 308 kts 301°
2026-05-05 09:39 43.21651 -2.73502 12108 ft 307 kts 301°
2026-05-05 09:39 43.22800 -2.75985 11704 ft 308 kts 301°
2026-05-05 09:39 43.23950 -2.78473 11297 ft 308 kts 301°
2026-05-05 09:40 43.25091 -2.80945 10887 ft 307 kts 301°
2026-05-05 09:40 43.26225 -2.83406 10626 ft 300 kts 301°
2026-05-05 09:40 43.27313 -2.85773 10534 ft 288 kts 301°
2026-05-05 09:40 43.28365 -2.88058 10426 ft 278 kts 301°
2026-05-05 09:41 43.29381 -2.90261 10306 ft 269 kts 301°
2026-05-05 09:41 43.30379 -2.92390 10184 ft 261 kts 305°
2026-05-05 09:41 43.31577 -2.94271 9784 ft 265 kts 311°
2026-05-05 09:41 43.32822 -2.96115 9309 ft 261 kts 311°
2026-05-05 09:42 43.34049 -2.97918 8879 ft 255 kts 311°
2026-05-05 09:42 43.35242 -2.99674 8467 ft 248 kts 311°
2026-05-05 09:42 43.36408 -3.01392 8064 ft 243 kts 311°
2026-05-05 09:42 43.37541 -3.03062 7665 ft 237 kts 312°
2026-05-05 09:43 43.38656 -3.04705 7292 ft 233 kts 312°
2026-05-05 09:43 43.39712 -3.06266 7514 ft 210 kts 310°
2026-05-05 09:43 43.40704 -3.07734 7658 ft 207 kts 310°
2026-05-05 09:43 43.41683 -3.09190 7615 ft 212 kts 310°
2026-05-05 09:44 43.42731 -3.10752 7022 ft 227 kts 310°
2026-05-05 09:44 43.43821 -3.12376 6413 ft 242 kts 310°
2026-05-05 09:44 43.44999 -3.14127 5758 ft 256 kts 310°
2026-05-05 09:44 43.46196 -3.15909 5537 ft 250 kts 309°
2026-05-05 09:45 43.47024 -3.17895 5525 ft 232 kts 283°
2026-05-05 09:45 43.47062 -3.20025 5521 ft 218 kts 258°
2026-05-05 09:45 43.46425 -3.21832 5523 ft 207 kts 232°
2026-05-05 09:45 43.45308 -3.23055 5258 ft 214 kts 209°
2026-05-05 09:46 43.43802 -3.23449 4838 ft 228 kts 179°
2026-05-05 09:46 43.42307 -3.22789 4685 ft 227 kts 150°
2026-05-05 09:46 43.41217 -3.21270 4617 ft 224 kts 121°
2026-05-05 09:46 43.40487 -3.19364 4562 ft 225 kts 119°
2026-05-05 09:47 43.39749 -3.17446 4339 ft 229 kts 118°
2026-05-05 09:47 43.39018 -3.15475 3972 ft 233 kts 118°
2026-05-05 09:47 43.38291 -3.13484 3631 ft 234 kts 117°
2026-05-05 09:47 43.37569 -3.11501 3321 ft 235 kts 117°
2026-05-05 09:48 43.36828 -3.09466 2986 ft 235 kts 117°
2026-05-05 09:48 43.36110 -3.07494 2681 ft 231 kts 116°
2026-05-05 09:48 43.35411 -3.05574 2347 ft 215 kts 116°
2026-05-05 09:48 43.34770 -3.03817 2052 ft 198 kts 116°
2026-05-05 09:49 43.34167 -3.02166 1781 ft 182 kts 116°
2026-05-05 09:49 43.33627 -3.00685 1518 ft 169 kts 115°
2026-05-05 09:49 43.33133 -2.99332 1265 ft 150 kts 115°
2026-05-05 09:49 43.32678 -2.98087 1016 ft 146 kts 116°
2026-05-05 09:50 43.32228 -2.96857 839 ft 146 kts 114°
2026-05-05 09:50 43.31781 -2.95605 698 ft 147 kts 116°
2026-05-05 09:50 43.31302 -2.94370 536 ft 146 kts 119°
2026-05-05 09:50 43.30805 -2.93150 265 ft 146 kts 110°
2026-05-05 09:51 43.30419 -2.91901 137 ft 140 kts 115°
2026-05-05 09:51 43.30062 -2.90915 124 ft 77 kts 116°
2026-05-05 09:51 43.29955 -2.90621 126 ft 2 kts 115°
2026-05-05 09:51 43.29936 -2.90561 124 ft 10 kts 111°
2026-05-05 09:52 43.29922 -2.90484 127 ft 13 kts 96°
2026-05-05 09:52 43.29930 -2.90340 128 ft 16 kts 86°
2026-05-05 09:52 43.29972 -2.90223 127 ft 14 kts 354°
2026-05-05 09:52 43.30005 -2.90265 126 ft 0 kts 294°
2026-05-05 09:55 43.30006 -2.90269 123 ft 2 kts 294°
2026-05-05 09:56 43.30017 -2.90300 124 ft 6 kts 294°
2026-05-05 09:56 43.30038 -2.90366 126 ft 9 kts 295°
2026-05-05 09:56 43.30074 -2.90462 126 ft 13 kts 299°
2026-05-05 09:56 43.30135 -2.90573 123 ft 16 kts 340°
2026-05-05 09:57 43.30230 -2.90526 125 ft 9 kts 13°
2026-05-05 09:57 43.30294 -2.90570 125 ft 12 kts 322°
2026-05-05 09:57 43.30332 -2.90610 125 ft 0 kts 321°
2026-05-05 09:57 43.30333 -2.90610 125 ft 1 kts 321°
2026-05-05 09:58 43.30344 -2.90626 126 ft 4 kts 308°
2026-05-05 09:58 43.30359 -2.90663 124 ft 3 kts 309°
2026-05-05 09:58 43.30387 -2.90661 123 ft 6 kts 22°
2026-05-05 09:58 43.30423 -2.90634 127 ft 0 kts 26°
2026-05-05 09:59 43.30427 -2.90632 124 ft 0 kts 26°
2026-05-05 10:00 43.30426 -2.90632 127 ft 0 kts 26°